* Astronomy

Members Login
Username 
 
Password 
    Remember Me  
Post Info TOPIC: Asteroid 2011 EL11


L

Posts: 131433
Date:
Asteroid 2011 EL11
Permalink  
 


Orbital elements:
2011 EL11 PHA, Earth MOID = 0.0164 AU
Epoch 2011 Feb. 8.0 TT = JDT 2455600.5 MPC
M 40.82604 (2000.0) P Q
n 0.38727440 Peri. 77.05354 +0.85258261 -0.52023988
a 1.8640470 Node 314.26903 +0.44864790 +0.77725476
e 0.6770586 Incl. 3.96639 +0.26798872 +0.35387216
P 2.54 H 19.5 G 0.15 U 9

MPEC 2011 - E24


__________________
Page 1 of 1  sorted by
 
Quick Reply

Please log in to post quick replies.



Create your own FREE Forum
Report Abuse
Powered by ActiveBoard